Track COSMOS 2465 (GLONASS) now! COSMOS 2465 (GLONASS) is classified as:
1 37138U 10041B 25197.31155869 .00000106 00000-0 00000+0 0 9996 2 37138 63.9104 201.7400 0040852 181.2504 1.3542 2.13098256115739